This demonstration page uses our WeatherBlox Daily Observations layout. Learn more.

Left ArrowRight Arrow

Hourly Observations for February 4, 2022

Temp ( °F °C ) Dew Point ( °F °C ) Humidity (%) Winds ( mph kmh ) Pressure ( in mb ) Visibility ( mi km ) Precip ( " mm )
12:56 am 00:56 Clear 6 -14.7 -7 -21.6 56 56 SSE 3 6 30.57 1035 10 16 0.00 0.00
1:56 am 01:56 Clear 4 -15.3 -6 -21.2 61 61 Calm 30.55 1035 10 16 0.00 0.00
2:56 am 02:56 Mostly Clear 5 -15.1 -6 -21.2 60 60 Calm 30.53 1034 10 16 0.00 0.00
3:56 am 03:56 Clear 5 -15.1 -5 -20.6 63 63 SSE 3 6 30.50 1033 10 16 0.00 0.00
4:56 am 04:56 Clear 5 -15.2 -6 -20.9 62 62 Calm 30.49 1033 10 16 0.00 0.00
5:56 am 05:56 Clear 4 -15.3 -5 -20.6 64 64 SSE 3 6 30.48 1032 10 16 0.00 0.00
6:56 am 06:56 Clear 6 -14.3 -6 -21.2 56 56 Calm 30.47 1032 9 14 0.00 0.00
7:56 am 07:56 Mostly Cloudy 9 -12.9 -4 -20.1 55 55 Calm 30.48 1032 10 16 0.00 0.00
9:56 am 09:56 undefined 19 -7.5 1 -17.2 46 46 WNW 8 13 30.49 1032 10 16 0.00 0.00
11:56 am 11:56 undefined 28 -2.5 5 -15.2 37 37 NW 24 39 30.50 1033 9 14 0.00 0.00
12:56 pm 12:56 Cloudy 26 -3.6 -1 -18.3 31 31 NW 17 28 30.51 1033 10 16 0.00 0.00
1:56 pm 13:56 Sunny 27 -2.6 -3 -19.5 26 26 NW 22 35 30.51 1033 10 16 0.00 0.00
2:56 pm 14:56 Sunny 27 -2.9 -7 -21.7 22 22 NNW 16 26 30.54 1034 10 16 0.00 0.00
3:56 pm 15:56 Sunny 26 -3.3 -8 -22 22 22 NNW 15 24 30.55 1035 10 16 0.00 0.00
4:56 pm 16:56 Sunny 25 -4 -10 -23.2 21 21 NW 16 26 30.57 1035 10 16 0.00 0.00
5:56 pm 17:56 Clear 22 -5.6 -10 -23.5 23 23 NNW 12 19 30.58 1036 10 16 0.00 0.00
6:56 pm 18:56 Clear 20 -6.7 -11 -24 24 24 N 7 11 30.60 1036 10 16 0.00 0.00
7:56 pm 19:56 Clear 18 -7.7 -10 -23.5 27 27 N 6 9 30.59 1036 10 16 0.00 0.00
8:56 pm 20:56 Clear 17 -8.6 -8 -22 33 33 NNE 3 6 30.60 1036 10 16 0.00 0.00
9:56 pm 21:56 Clear 14 -9.8 -6 -20.9 40 40 Calm 30.61 1037 10 16 0.00 0.00
10:56 pm 22:56 Clear 14 -9.8 -6 -20.9 40 40 Calm 30.57 1035 10 16 0.00 0.00
11:56 pm 23:56 Clear 12 -11.2 -3 -19.6 50 50 Calm 30.54 1034 10 16 0.00 0.00

Powered by AerisWeather